Location: Buckeye Ditch
(40.9104°N, 122.9517°W)
Time: 22:30:45
(UTC+00:00)

Transit 2A - Pass Details

Date: 20 May 2025
Orbit: 599 x 947 km, 66.7° (Epoch: 20 June)

Event Time Altitude Azimuth Distance (km) Brightness Sun altitude
Rises 22:15:31 0° 346° (NNW) 2,873 8.9 56.0°
Reaches altitude 10° 22:18:46 10° 12° (NNE) 1,997 8.1 55.4°
Maximum altitude 22:21:10 14° 45° (NE) 1,767 7.7 55.0°
Drops below altitude 10° 22:23:38 10° 77° (ENE) 2,065 8.0 54.6°
Sets 22:27:05 0° 102° (ESE) 3,044 8.8 54.0°
